Location: *
(40.4000°N, 15.1200°E)
Time: 07:58:59
(UTC+00:00)

GPS 2-04 Rocket1 - Pass Details

Date: 09 April 2020
Orbit: 418 x 549 km, 35.6° (Epoch: 23 May)

Event Time Altitude Azimuth Distance (km) Brightness Sun altitude
Rises 18:21:18 0° 216° (SW) 2,597 6.5 -9.8°
Reaches altitude 10° 18:24:06 10° 195° (SSW) 1,741 5.3 -10.3°
Maximum altitude 18:26:42 17° 155° (SSE) 1,393 4.5 -10.7°
Enters shadow 18:28:07 14° 130° (SE) 1,519 4.5 -11.0°
